EDDF

Frankfurt am Main Airport

Airport
ICAO code
EDDF
IATA Code
FRA
Summary
ICAO Region
EUR
ICAO Territory
Location

Frankfurt,

Serving
Frankfurt
Elevation
364 ft
Coordinates
50° 2' 28" N , 8° 34' 24" E
KCC
Airport LOS
Parallel Runway Operation
Metar
Observation
EDDF 082120Z AUTO 07007KT CAVOK M02/M07 Q1035 NOSIG
Station
Frankfurt / M-Flughafen
Date/Time
2023-02-08 22:20:00
Wind direction
70°
Wind speed
07 kts
Lowest cloud amount
clouds and visibility OK
Temperature
-2°C
Dew point
-7°C
Humidity
68%
QNH
1035 hPa
Weather condition
n/a

Description

International airport serving Frankfurt am Main, Germany.

Climatology

Temperate Marine climate/Oceanic climate (Köppen climate classification Cfb) - Moderately cool summer and comparatively warm winter.

Runways

Designator Length Width Surface Rops
07C/25C 4000 60 CON Yes/Yes
07R/25L 4000 45 CON Yes/Yes
18/36 4000 45 CON Yes/Yes

SKYbrary Partners:

Safety knowledge contributed by: